When you browse on this site, cookies collect data to enhance your experience and personalize the content and advertising you see.
Visit our Privacy Policy to learn more. By continuing to use the site, you agree to this use of cookies and data.
  • In Belgien
  • Länderverzeichnis
  • Für 7 Tage
  • Wassertemperatur
  • Satellitenkarten
  • Wetterkarte
  • Widgets
  • user-avatar
    Anmelden

    Stündliche Wetter Takuarembo

    Heute, 16 Dezember, Sonntag

    Zeit Temperatur Niederschläge Wind Luftdruck Luftfeuchtigkeit
    00:00 +17°C° 0 mm 2 m/S 750 mmHg 79%
    01:00 +17°C° 0 mm 3 m/S 750 mmHg 80%
    02:00 +17°C° 0 mm 3 m/S 750 mmHg 81%
    03:00 +17°C° 0 mm 2 m/S 750 mmHg 84%
    04:00 +17°C° 0 mm 2 m/S 750 mmHg 87%
    05:00 +17°C° 0 mm 2 m/S 750 mmHg 89%
    06:00 +20°C° 0 mm 3 m/S 750 mmHg 85%
    07:00 +22°C° 0 mm 3 m/S 750 mmHg 81%
    08:00 +26°C° 0 mm 3 m/S 750 mmHg 77%
    09:00 +28°C° 0 mm 3 m/S 750 mmHg 70%
    10:00 +30°C° 0 mm 3 m/S 750 mmHg 63%
    11:00 +33°C° 0 mm 3 m/S 749 mmHg 56%
    12:00 +34°C° 0 mm 2 m/S 749 mmHg 53%
    13:00 +35°C° 0 mm 2 m/S 748 mmHg 50%
    14:00 +35°C° 0 mm 2 m/S 747 mmHg 47%
    15:00 +35°C° 0 mm 2 m/S 747 mmHg 53%
    16:00 +34°C° 0 mm 2 m/S 747 mmHg 59%
    17:00 +32°C° 0 mm 2 m/S 746 mmHg 65%
    18:00 +31°C° 0.1 mm 2 m/S 746 mmHg 68%
    19:00 +29°C° 0.1 mm 2 m/S 746 mmHg 72%
    20:00 +28°C° 0.1 mm 1 m/S 746 mmHg 75%
    21:00 +27°C° 0.1 mm 1 m/S 746 mmHg 78%
    22:00 +27°C° 0.1 mm 1 m/S 746 mmHg 81%
    23:00 +26°C° 0.1 mm 1 m/S 746 mmHg 84%

    Morgen, 17 Dezember, Montag

    Zeit Temperatur Niederschläge Wind Luftdruck Luftfeuchtigkeit
    00:00 +26°C° 0 mm 2 m/S 746 mmHg 84%
    01:00 +26°C° 0 mm 2 m/S 746 mmHg 85%
    02:00 +25°C° 0 mm 2 m/S 745 mmHg 85%
    03:00 +25°C° 0.6 mm 2 m/S 746 mmHg 87%
    04:00 +25°C° 0.6 mm 2 m/S 746 mmHg 88%
    05:00 +25°C° 0.6 mm 2 m/S 746 mmHg 89%
    06:00 +27°C° 0.4 mm 2 m/S 746 mmHg 85%
    07:00 +28°C° 0.4 mm 2 m/S 746 mmHg 82%
    08:00 +30°C° 0.4 mm 2 m/S 746 mmHg 79%
    09:00 +29°C° 4.2 mm 2 m/S 746 mmHg 81%
    10:00 +29°C° 4.2 mm 2 m/S 746 mmHg 83%
    11:00 +28°C° 4.2 mm 2 m/S 746 mmHg 85%
    12:00 +28°C° 6.9 mm 3 m/S 746 mmHg 87%
    13:00 +27°C° 6.9 mm 3 m/S 746 mmHg 90%
    14:00 +26°C° 6.9 mm 4 m/S 745 mmHg 92%
    15:00 +26°C° 3.7 mm 4 m/S 745 mmHg 93%
    16:00 +26°C° 3.7 mm 4 m/S 745 mmHg 94%
    17:00 +25°C° 3.7 mm 5 m/S 745 mmHg 94%
    18:00 +25°C° 4.2 mm 4 m/S 745 mmHg 95%
    19:00 +23°C° 4.2 mm 4 m/S 745 mmHg 95%
    20:00 +24°C° 4.2 mm 3 m/S 746 mmHg 96%
    21:00 +24°C° 0.2 mm 3 m/S 746 mmHg 95%
    22:00 +22°C° 0.2 mm 3 m/S 746 mmHg 95%
    23:00 +22°C° 0.2 mm 3 m/S 746 mmHg 95%

    übermorgen, 18 Dezember, Dienstag

    Zeit Temperatur Niederschläge Wind Luftdruck Luftfeuchtigkeit
    00:00 +22°C° 1.2 mm 3 m/S 746 mmHg 95%
    01:00 +22°C° 1.2 mm 3 m/S 745 mmHg 96%
    02:00 +23°C° 1.2 mm 2 m/S 745 mmHg 97%
    03:00 +22°C° 1.3 mm 3 m/S 745 mmHg 96%
    04:00 +22°C° 1.3 mm 3 m/S 745 mmHg 95%
    05:00 +22°C° 1.3 mm 3 m/S 745 mmHg 95%
    06:00 +23°C° 0.8 mm 4 m/S 745 mmHg 95%
    07:00 +23°C° 0.8 mm 4 m/S 745 mmHg 96%
    08:00 +23°C° 0.8 mm 5 m/S 745 mmHg 96%
    09:00 +23°C° 0.1 mm 5 m/S 746 mmHg 94%
    10:00 +25°C° 0.1 mm 4 m/S 746 mmHg 92%
    11:00 +25°C° 0.1 mm 4 m/S 746 mmHg 91%
    12:00 +26°C° 0.3 mm 4 m/S 746 mmHg 88%
    13:00 +26°C° 0.3 mm 4 m/S 746 mmHg 86%
    14:00 +27°C° 0.3 mm 4 m/S 746 mmHg 84%
    15:00 +27°C° 0.1 mm 4 m/S 746 mmHg 84%
    16:00 +27°C° 0.1 mm 4 m/S 746 mmHg 84%
    17:00 +27°C° 0.1 mm 5 m/S 746 mmHg 83%
    18:00 +26°C° 0 mm 4 m/S 747 mmHg 87%
    19:00 +25°C° 0 mm 3 m/S 747 mmHg 91%
    20:00 +24°C° 0 mm 2 m/S 747 mmHg 95%
    21:00 +23°C° 0 mm 2 m/S 747 mmHg 96%
    22:00 +23°C° 0 mm 2 m/S 747 mmHg 97%
    23:00 +21°C° 0 mm 2 m/S 748 mmHg 98%

    19 Dezember, Mittwoch

    Zeit Temperatur Niederschläge Wind Luftdruck Luftfeuchtigkeit
    00:00 +21°C° 0 mm 2 m/S 747 mmHg 97%
    01:00 +21°C° 0 mm 2 m/S 747 mmHg 97%
    02:00 +21°C° 0 mm 2 m/S 746 mmHg 97%
    03:00 +21°C° 0 mm 2 m/S 746 mmHg 97%
    04:00 +21°C° 0 mm 2 m/S 746 mmHg 97%
    05:00 +21°C° 0 mm 2 m/S 747 mmHg 97%
    06:00 +23°C° 0 mm 2 m/S 747 mmHg 94%
    07:00 +24°C° 0 mm 2 m/S 747 mmHg 91%
    08:00 +25°C° 0 mm 3 m/S 747 mmHg 88%
    09:00 +25°C° 0.1 mm 3 m/S 747 mmHg 85%
    10:00 +26°C° 0.1 mm 2 m/S 747 mmHg 82%
    11:00 +27°C° 0.1 mm 2 m/S 747 mmHg 79%
    12:00 +27°C° 0.3 mm 2 m/S 746 mmHg 77%
    13:00 +28°C° 0.3 mm 2 m/S 746 mmHg 75%
    14:00 +29°C° 0.3 mm 2 m/S 745 mmHg 74%
    15:00 +28°C° 0.7 mm 2 m/S 745 mmHg 78%
    16:00 +28°C° 0.7 mm 2 m/S 745 mmHg 81%
    17:00 +27°C° 0.7 mm 2 m/S 744 mmHg 85%
    18:00 +26°C° 0.1 mm 2 m/S 744 mmHg 88%
    19:00 +25°C° 0.1 mm 2 m/S 744 mmHg 91%
    20:00 +24°C° 0.1 mm 2 m/S 744 mmHg 93%
    21:00 +24°C° 0 mm 2 m/S 744 mmHg 94%
    22:00 +24°C° 0 mm 2 m/S 744 mmHg 94%
    23:00 +23°C° 0 mm 2 m/S 744 mmHg 95%

    20 Dezember, Donnerstag

    Zeit Temperatur Niederschläge Wind Luftdruck Luftfeuchtigkeit
    00:00 +23°C° 0.1 mm 2 m/S 744 mmHg 94%
    01:00 +23°C° 0.1 mm 2 m/S 744 mmHg 94%
    02:00 +23°C° 0.1 mm 2 m/S 744 mmHg 93%
    03:00 +23°C° 1.3 mm 2 m/S 744 mmHg 94%
    04:00 +22°C° 1.3 mm 1 m/S 744 mmHg 95%
    05:00 +22°C° 1.3 mm 1 m/S 745 mmHg 96%
    06:00 +23°C° 0.6 mm 1 m/S 745 mmHg 93%
    07:00 +24°C° 0.6 mm 2 m/S 745 mmHg 91%
    08:00 +24°C° 0.6 mm 2 m/S 745 mmHg 88%
    09:00 +25°C° 0.1 mm 2 m/S 745 mmHg 85%
    10:00 +26°C° 0.1 mm 2 m/S 745 mmHg 81%
    11:00 +27°C° 0.1 mm 1 m/S 745 mmHg 78%
    12:00 +28°C° 0.1 mm 1 m/S 745 mmHg 75%
    13:00 +28°C° 0.1 mm 1 m/S 744 mmHg 72%
    14:00 +29°C° 0.1 mm 1 m/S 744 mmHg 70%
    15:00 +29°C° 0 mm 1 m/S 744 mmHg 69%
    16:00 +29°C° 0 mm 1 m/S 744 mmHg 68%
    17:00 +30°C° 0 mm 1 m/S 743 mmHg 67%
    18:00 +28°C° 0 mm 1 m/S 743 mmHg 72%
    19:00 +26°C° 0 mm 1 m/S 743 mmHg 77%
    20:00 +25°C° 0 mm 1 m/S 743 mmHg 82%
    21:00 +24°C° 0 mm 1 m/S 744 mmHg 84%
    22:00 +24°C° 0 mm 1 m/S 744 mmHg 86%
    23:00 +23°C° 0 mm 1 m/S 744 mmHg 89%

    21 Dezember, Freitag

    Zeit Temperatur Niederschläge Wind Luftdruck Luftfeuchtigkeit
    00:00 +23°C° 0 mm 1 m/S 744 mmHg 90%
    01:00 +23°C° 0 mm 1 m/S 744 mmHg 92%
    02:00 +21°C° 0 mm 2 m/S 744 mmHg 93%
    03:00 +21°C° 0 mm 2 m/S 744 mmHg 94%
    04:00 +21°C° 0 mm 2 m/S 744 mmHg 95%
    05:00 +20°C° 0 mm 2 m/S 745 mmHg 96%
    06:00 +23°C° 0 mm 2 m/S 745 mmHg 92%
    07:00 +24°C° 0 mm 2 m/S 745 mmHg 88%
    08:00 +26°C° 0 mm 2 m/S 746 mmHg 84%
    09:00 +27°C° 0.1 mm 2 m/S 746 mmHg 80%
    10:00 +28°C° 0.1 mm 2 m/S 745 mmHg 76%
    11:00 +29°C° 0.1 mm 2 m/S 745 mmHg 71%
    12:00 +30°C° 0.1 mm 2 m/S 745 mmHg 67%
    13:00 +31°C° 0.1 mm 3 m/S 745 mmHg 63%
    14:00 +31°C° 0.1 mm 3 m/S 744 mmHg 59%
    15:00 +31°C° 0.2 mm 3 m/S 744 mmHg 63%
    16:00 +30°C° 0.2 mm 3 m/S 744 mmHg 67%
    17:00 +29°C° 0.2 mm 3 m/S 744 mmHg 71%
    18:00 +28°C° 0.1 mm 3 m/S 744 mmHg 75%
    19:00 +26°C° 0.1 mm 3 m/S 745 mmHg 79%
    20:00 +24°C° 0.1 mm 3 m/S 745 mmHg 82%
    21:00 +22°C° 0 mm 3 m/S 745 mmHg 83%
    22:00 +21°C° 0 mm 3 m/S 746 mmHg 85%
    23:00 +21°C° 0 mm 3 m/S 746 mmHg 86%
    Mehr zeigen